Regional Weather Roundup
Issued by NWS Upton, NY

Current Version | Previous Version | Text Only | Print | Product List | Glossary On
Versions: 1 2 3 4 5 6 7 8 9 10 11 12 13 14 15 16 17 18 19 20 21 22 23 24 25 26 27 28 29 30 31 32 33 34 35 36 37 38 39 40 41 42 43 44 45 46 47 48 49 50
000
ASUS41 KOKX 180907
RWROKX

REGIONAL WEATHER ROUNDUP
NATIONAL WEATHER SERVICE NEW YORK NY
500 AM EDT SAT APR 18 2015

NOTE: "FAIR" INDICATES FEW OR NO CLOUDS BELOW 12,000 FEET WITH NO
SIGNIFICANT WEATHER AND/OR OBSTRUCTIONS TO VISIBILITY.

NYZ071-072-176-178-NJZ106-104-181000-
NEW YORK CITY METRO AREA


CITY           SKY/WX    TMP DP  RH WIND       PRES   REMARKS
CENTRAL PARK   CLEAR     60  44  55 CALM      29.99S
LAGUARDIA APRT PTCLDY    58  44  60 CALM      29.96R
KENNEDY INTL   MOCLDY    57  44  62 N3        29.97S
NEWARK/LIBERTY PTCLDY    59  46  62 CALM      29.96F
BRNX BOT. GARD   N/A     57  43  58 NW2       29.97R
TETERBORO      CLEAR     50  44  80 CALM      29.95S
$$

NYZ177-179-078>081-181000-
LONG ISLAND NEW YORK

CITY           SKY/WX    TMP DP  RH WIND       PRES   REMARKS
FARMINGDALE    CLEAR     51  47  86 CALM      29.96S
ISLIP          CLEAR     49  44  83 CALM      29.95R
SHIRLEY        CLEAR     48  45  89 CALM      29.97R
WESTHAMPTON    CLEAR     39  37  92 CALM      29.97R FOG
MONTAUK POINT    N/A     51  46  83 W5        29.95S
$$

NYZ052-065-067-181000-
HUDSON VALLEY

CITY           SKY/WX    TMP DP  RH WIND       PRES   REMARKS
WHITE PLAINS   CLEAR     48  43  82 NW5       29.95S
NEWBURGH       CLEAR     46  45  93 CALM      29.97F
MONTGOMERY     CLEAR     42  40  92 CALM      29.95F FOG
POUGHKEEPSIE   CLEAR     43  40  89 CALM      29.95F
ALBANY         CLEAR     43  40  89 S5        29.95S
$$

NJZ001-105-106-008-010-013-015-019>022-104-181000-
NEW JERSEY

CITY           SKY/WX    TMP DP  RH WIND       PRES   REMARKS
NEWARK/LIBERTY PTCLDY    59  46  62 CALM      29.96F
TETERBORO      CLEAR     50  44  80 CALM      29.95S
CALDWELL       CLEAR     49  43  80 CALM      29.98R
MORRISTOWN     CLEAR     46  43  87 CALM      29.98S FOG
SOMERVILLE     CLEAR     45  43  93 CALM      29.96S FOG
SUSSEX         FOG       42  40  92 CALM      29.98F VSB 1/2
ANDOVER          N/A     44  43  96 CALM      29.98S
TRENTON        CLEAR     52  48  86 N3        29.97S
MILLVILLE      FOG       53  53 100 CALM      29.96S VSB 1/2
ATLANTIC CITY  FOG       53  52  96 N3        29.96F VSB 1/4
WRIGHTSTOWN    FOG       52  52 100 CALM      29.94F VSB 1
TOMS RIVER     PTCLDY    48  45  87 CALM      29.98S
BELMAR         CLOUDY    57  46  67 N5        29.97S
$$

PAZ047>061-062-071-181000-
EASTERN PENNSYLVANIA

CITY           SKY/WX    TMP DP  RH WIND       PRES   REMARKS
PHILADELPHIA   PTCLDY    56  52  86 E3        29.98S
ALLENTOWN      CLEAR     45  45 100 W3        29.98S FOG
SCRANTON       CLEAR     47  43  86 E5        29.99S
$$

CTZ002-004>006-009-010-012-RIZ004-006-007-MAZ004-011-015-181000-
SOUTHERN NEW ENGLAND
 IN CT

CITY           SKY/WX    TMP DP  RH WIND       PRES   REMARKS
BRADLEY INTL   CLEAR     46  42  86 W3        29.94R
HARTFORD       FOG       41  40  96 MISG      29.96R VSB 1/4
DANBURY        CLEAR     42  38  85 CALM      29.97S
WTRBRY/OXFORD  CLEAR     48  39  71 NW3       29.97S
BRIDGEPORT     CLEAR     47  44  90 CALM      29.96R
MERIDEN        PTCLDY    43  40  89 CALM      29.95S FOG
NEW HAVEN      CLEAR     42  41  96 CALM      29.95S FOG
CHESTER        FAIR      54  46  76 NW8       29.95S
GROTON         FOG       44  41  89 CALM      29.93S VSB 1
WILLIMANTIC    MOCLDY    40  38  93 CALM      29.95R FOG

 IN RI

CITY           SKY/WX    TMP DP  RH WIND       PRES   REMARKS
PROVIDENCE     CLEAR     48  43  82 CALM      29.92S
BLOCK ISLAND   CLEAR     50  45  81 NW7       29.93S
WESTERLY       CLEAR     45  43  93 CALM      29.94S

 IN MA

CITY           SKY/WX    TMP DP  RH WIND       PRES   REMARKS
BOSTON         CLEAR     51  44  77 NW5       29.91S
WORCESTER      CLEAR     50  41  71 NW14      29.92S
WESTFIELD      CLEAR     45  41  86 S3        29.94R
PROVINCETOWN   CLEAR     46  43  87 W5        29.91S
NANTUCKET      LGT RAIN  45  42  89 NW6       29.91F
$$

ANZ330-335-338-340-345-350-353-355-181000-
COASTAL MARINE OBSERVATIONS


STATION/POSITION TIME  SKY/WX   TEMP    WIND        PRES    VSBY  WAVE
                                AIR SEA DIR/SP/G                  HT/PER
                 (UTC)          (F)     (DEG/KT/KT) (MB)    (MI)  (FT/S)
NY HARB ENTRANCE 0850            52 47  250/  4/  6 1014.4          3/ 8
4S FIRE IS       0803               44                N/A           3/ 8
20S FIRE ISLAND  0750               44              1014.9          3/ 8
23SW MTP         0850                                 N/A           3/ 8
HUDSON CANYON    NOT AVBL
EXECUTION ROCKS  NOT AVBL
WESTERN LI SOUND NOT AVBL
CENTRAL LI SOUND NOT AVBL
EASTERN LI SOUND 0800            45     290/  4/  6   N/A
ROBBINS REEF     0800            60     310/  3/  4 1013.6
$$


>>>>>>>>>>>>>>>>>>>>>>>>>>>> KEY <<<<<<<<<<<<<<<<<<<<<<<<<<<
>                                                          <
>     SKY/WX - SKY CONDITION/PRESENT WEATHER               <
>     TMP    - TEMPERATURE IN FAHRENHEIT                   <
>     DP     - DEWPOINT IN FAHRENHEIT                      <
>     RH     - RELATIVE HUMIDITY IN PERCENT                <
>     WIND   - DIRECTION AND SPEED IN MPH                  <
>     PRES   - MEAN SEA LEVEL PRESSURE IN INCHES OF HG     <
>     WCI    - WIND CHILL INDEX                            <
>     VSB    - VISIBILITY IN MILES                         <
>     HX     - HEAT INDEX                                  <
>     TC     - TEMPERATURE IN CELSIUS                      <
>     VRB    - VARIABLE WIND DIRECTION                     <
>                                                          <
>>>>>>>>>>>>>>>>>>>>>>>>>>>> KEY <<<<<<<<<<<<<<<<<<<<<<<<<<<





USA.gov is the U.S. government's official web portal to all federal, state and local government web resources and services.